Year,Month,Day,Hour,Minute,Value (Times are PST for windspeed in km/hr)
2010,06,01,00,00,0.00
2010,06,01,00,01,0.00
2010,06,01,00,02,0.00
2010,06,01,00,03,0.50
2010,06,01,00,04,0.10
2010,06,01,00,05,0.10
2010,06,01,00,06,3.90
2010,06,01,00,07,3.00
2010,06,01,00,08,0.30
2010,06,01,00,09,0.30
2010,06,01,00,10,3.10
2010,06,01,00,11,4.00
2010,06,01,00,12,3.10
2010,06,01,00,13,5.80
2010,06,01,00,14,6.50
2010,06,01,00,15,7.00
2010,06,01,00,16,4.00
2010,06,01,00,17,2.60
2010,06,01,00,18,2.70
2010,06,01,00,19,6.00
2010,06,01,00,20,5.10
2010,06,01,00,21,6.30
2010,06,01,00,22,10.40
2010,06,01,00,23,11.30
2010,06,01,00,24,7.50
2010,06,01,00,25,8.30
2010,06,01,00,26,8.10
2010,06,01,00,27,7.50
2010,06,01,00,28,6.20
2010,06,01,00,29,6.10
2010,06,01,00,30,7.90
2010,06,01,00,31,6.00
2010,06,01,00,32,6.50
2010,06,01,00,33,4.10
2010,06,01,00,34,5.70
2010,06,01,00,35,6.30
2010,06,01,00,36,5.20
2010,06,01,00,37,6.70
2010,06,01,00,38,6.00
2010,06,01,00,39,7.80
2010,06,01,00,40,4.90
2010,06,01,00,41,2.50
2010,06,01,00,42,7.50
2010,06,01,00,43,1.60
2010,06,01,00,44,3.10
2010,06,01,00,45,1.40
2010,06,01,00,46,0.30
2010,06,01,00,47,4.90
2010,06,01,00,48,4.00
2010,06,01,00,49,0.80
2010,06,01,00,50,4.10
2010,06,01,00,51,0.10
2010,06,01,00,52,1.90
2010,06,01,00,53,4.60
2010,06,01,00,54,3.30
2010,06,01,00,55,0.00
2010,06,01,00,56,1.50
2010,06,01,00,57,1.20
2010,06,01,00,58,1.10
2010,06,01,00,59,2.20
2010,06,01,01,00,1.90
2010,06,01,01,01,0.30
2010,06,01,01,02,1.90
2010,06,01,01,03,3.50
2010,06,01,01,04,0.40
2010,06,01,01,05,0.60
2010,06,01,01,06,1.60
2010,06,01,01,07,2.80
2010,06,01,01,08,1.00
2010,06,01,01,09,1.90
2010,06,01,01,10,1.50
2010,06,01,01,11,2.90
2010,06,01,01,12,1.50
2010,06,01,01,13,0.70
2010,06,01,01,14,1.90
2010,06,01,01,15,3.90
2010,06,01,01,16,2.40
2010,06,01,01,17,3.60
2010,06,01,01,18,6.40
2010,06,01,01,19,1.70
2010,06,01,01,20,1.70
2010,06,01,01,21,2.10
2010,06,01,01,22,2.10
2010,06,01,01,23,4.90
2010,06,01,01,24,0.40
2010,06,01,01,25,1.10
2010,06,01,01,26,0.20
2010,06,01,01,27,1.00
2010,06,01,01,28,0.90
2010,06,01,01,29,1.60
2010,06,01,01,30,1.90
2010,06,01,01,31,2.20
2010,06,01,01,32,2.40
2010,06,01,01,33,4.30
2010,06,01,01,34,3.50
2010,06,01,01,35,5.40
2010,06,01,01,36,8.00
2010,06,01,01,37,4.70
2010,06,01,01,38,5.30
2010,06,01,01,39,5.40
2010,06,01,01,40,4.90
2010,06,01,01,41,5.80
2010,06,01,01,42,4.70
2010,06,01,01,43,4.70
2010,06,01,01,44,6.00
2010,06,01,01,45,4.30
2010,06,01,01,46,3.50
2010,06,01,01,47,0.80
2010,06,01,01,48,0.40
2010,06,01,01,49,3.40
2010,06,01,01,50,2.00
2010,06,01,01,51,4.40
2010,06,01,01,52,4.50
2010,06,01,01,53,5.50
2010,06,01,01,54,4.60
2010,06,01,01,55,4.90
2010,06,01,01,56,4.20
2010,06,01,01,57,2.30
2010,06,01,01,58,5.40
2010,06,01,01,59,3.90
2010,06,01,02,00,4.50
2010,06,01,02,01,5.10
2010,06,01,02,02,5.50
2010,06,01,02,03,4.70
2010,06,01,02,04,4.80
2010,06,01,02,05,0.20
2010,06,01,02,06,0.30
2010,06,01,02,07,1.10
2010,06,01,02,08,4.60
2010,06,01,02,09,2.80
2010,06,01,02,10,3.70
2010,06,01,02,11,3.10
2010,06,01,02,12,2.50
2010,06,01,02,13,0.70
2010,06,01,02,14,0.50
2010,06,01,02,15,1.10
2010,06,01,02,16,0.80
2010,06,01,02,17,1.30
2010,06,01,02,18,2.50
2010,06,01,02,19,1.40
2010,06,01,02,20,0.30
2010,06,01,02,21,2.50
2010,06,01,02,22,1.10
2010,06,01,02,23,2.50
2010,06,01,02,24,1.10
2010,06,01,02,25,1.90
2010,06,01,02,26,3.50
2010,06,01,02,27,1.40
2010,06,01,02,28,3.00
2010,06,01,02,29,1.20
2010,06,01,02,30,3.10
2010,06,01,02,31,2.30
2010,06,01,02,32,1.70
2010,06,01,02,33,2.40
2010,06,01,02,34,0.90
2010,06,01,02,35,2.00
2010,06,01,02,36,2.10
2010,06,01,02,37,3.60
2010,06,01,02,38,3.60
2010,06,01,02,39,3.40
2010,06,01,02,40,4.00
2010,06,01,02,41,2.90
2010,06,01,02,42,2.70
2010,06,01,02,43,3.10
2010,06,01,02,44,2.20
2010,06,01,02,45,2.00
2010,06,01,02,46,1.10
2010,06,01,02,47,1.30
2010,06,01,02,48,3.20
2010,06,01,02,49,5.20
2010,06,01,02,50,4.40
2010,06,01,02,51,5.40
2010,06,01,02,52,3.70
2010,06,01,02,53,6.10
2010,06,01,02,54,3.60
2010,06,01,02,55,6.00
2010,06,01,02,56,4.70
2010,06,01,02,57,3.90
2010,06,01,02,58,2.60
2010,06,01,02,59,4.30
2010,06,01,03,00,3.20
2010,06,01,03,01,2.90
2010,06,01,03,02,2.30
2010,06,01,03,03,2.10
2010,06,01,03,04,4.40
2010,06,01,03,05,4.50
2010,06,01,03,06,4.50
2010,06,01,03,07,3.30
2010,06,01,03,08,1.90
2010,06,01,03,09,3.10
2010,06,01,03,10,2.90
2010,06,01,03,11,1.90
2010,06,01,03,12,4.00
2010,06,01,03,13,4.90
2010,06,01,03,14,5.80
2010,06,01,03,15,5.30
2010,06,01,03,16,5.80
2010,06,01,03,17,4.70
2010,06,01,03,18,1.40
2010,06,01,03,19,1.10
2010,06,01,03,20,0.10
2010,06,01,03,21,0.20
2010,06,01,03,22,2.10
2010,06,01,03,23,0.00
2010,06,01,03,24,0.10
2010,06,01,03,25,0.20
2010,06,01,03,26,0.60
2010,06,01,03,27,2.40
2010,06,01,03,28,5.30
2010,06,01,03,29,3.20
2010,06,01,03,30,1.70
2010,06,01,03,31,0.10
2010,06,01,03,32,1.50
2010,06,01,03,33,3.00
2010,06,01,03,34,1.70
2010,06,01,03,35,3.90
2010,06,01,03,36,1.00
2010,06,01,03,37,5.10
2010,06,01,03,38,5.70
2010,06,01,03,39,4.80
2010,06,01,03,40,3.00
2010,06,01,03,41,2.50
2010,06,01,03,42,4.70
2010,06,01,03,43,1.90
2010,06,01,03,44,3.50
2010,06,01,03,45,5.30
2010,06,01,03,46,3.90
2010,06,01,03,47,4.20
2010,06,01,03,48,8.10
2010,06,01,03,49,4.10
2010,06,01,03,50,6.50
2010,06,01,03,51,4.10
2010,06,01,03,52,4.60
2010,06,01,03,53,6.20
2010,06,01,03,54,5.00
2010,06,01,03,55,6.40
2010,06,01,03,56,4.70
2010,06,01,03,57,3.60
2010,06,01,03,58,4.10
2010,06,01,03,59,2.70
2010,06,01,04,00,5.90
2010,06,01,04,01,5.30
2010,06,01,04,02,3.00
2010,06,01,04,03,4.60
2010,06,01,04,04,5.10
2010,06,01,04,05,4.50
2010,06,01,04,06,3.90
2010,06,01,04,07,4.30
2010,06,01,04,08,1.40
2010,06,01,04,09,6.80
2010,06,01,04,10,2.20
2010,06,01,04,11,3.20
2010,06,01,04,12,5.00
2010,06,01,04,13,5.10
2010,06,01,04,14,1.80
2010,06,01,04,15,3.00
2010,06,01,04,16,4.60
2010,06,01,04,17,3.80
2010,06,01,04,18,2.00
2010,06,01,04,19,2.50
2010,06,01,04,20,1.50
2010,06,01,04,21,1.80
2010,06,01,04,22,3.80
2010,06,01,04,23,4.80
2010,06,01,04,24,2.80
2010,06,01,04,25,4.30
2010,06,01,04,26,3.80
2010,06,01,04,27,1.50
2010,06,01,04,28,4.00
2010,06,01,04,29,4.60
2010,06,01,04,30,2.60
2010,06,01,04,31,0.50
2010,06,01,04,32,1.30
2010,06,01,04,33,2.30
2010,06,01,04,34,2.80
2010,06,01,04,35,3.40
2010,06,01,04,36,0.00
2010,06,01,04,37,0.00
2010,06,01,04,38,0.00
2010,06,01,04,39,0.00
2010,06,01,04,40,0.00
2010,06,01,04,41,0.00
2010,06,01,04,42,0.30
2010,06,01,04,43,1.50
2010,06,01,04,44,0.50
2010,06,01,04,45,5.50
2010,06,01,04,46,1.50
2010,06,01,04,47,0.00
2010,06,01,04,48,0.50
2010,06,01,04,49,1.80
2010,06,01,04,50,0.00
2010,06,01,04,51,0.10
2010,06,01,04,52,0.20
2010,06,01,04,53,1.30
2010,06,01,04,54,0.00
2010,06,01,04,55,0.10
2010,06,01,04,56,0.00
2010,06,01,04,57,0.10
2010,06,01,04,58,0.50
2010,06,01,04,59,0.20
2010,06,01,05,00,0.00
2010,06,01,05,01,0.00
2010,06,01,05,02,0.10
2010,06,01,05,03,0.00
2010,06,01,05,04,0.10
2010,06,01,05,05,0.00
2010,06,01,05,06,0.00
2010,06,01,05,07,0.00
2010,06,01,05,08,0.00
2010,06,01,05,09,0.00
2010,06,01,05,10,0.00
2010,06,01,05,11,0.00
2010,06,01,05,12,0.20
2010,06,01,05,13,0.00
2010,06,01,05,14,0.00
2010,06,01,05,15,0.00
2010,06,01,05,16,0.80
2010,06,01,05,17,0.20
2010,06,01,05,18,0.40
2010,06,01,05,19,0.10
2010,06,01,05,20,0.40
2010,06,01,05,21,0.20
2010,06,01,05,22,0.30
2010,06,01,05,23,0.10
2010,06,01,05,24,0.30
2010,06,01,05,25,0.00
2010,06,01,05,26,0.00
2010,06,01,05,27,0.00
2010,06,01,05,28,0.00
2010,06,01,05,29,0.00
2010,06,01,05,30,0.00
2010,06,01,05,31,0.00
2010,06,01,05,32,0.00
2010,06,01,05,33,0.00
2010,06,01,05,34,0.00
2010,06,01,05,35,0.00
2010,06,01,05,36,0.00
2010,06,01,05,37,0.00
2010,06,01,05,38,0.00
2010,06,01,05,39,0.00
2010,06,01,05,40,0.00
2010,06,01,05,41,0.00
2010,06,01,05,42,0.00
2010,06,01,05,43,0.00
2010,06,01,05,44,0.00
2010,06,01,05,45,0.00
2010,06,01,05,46,0.00
2010,06,01,05,47,0.00
2010,06,01,05,48,0.00
2010,06,01,05,49,0.00
2010,06,01,05,50,0.00
2010,06,01,05,51,0.00
2010,06,01,05,52,0.00
2010,06,01,05,53,0.00
2010,06,01,05,54,0.00
2010,06,01,05,55,0.00
2010,06,01,05,56,0.00
2010,06,01,05,57,0.00
2010,06,01,05,58,0.00
2010,06,01,05,59,0.00
2010,06,01,06,00,0.00
2010,06,01,06,01,0.00
2010,06,01,06,02,0.00
2010,06,01,06,03,0.00
2010,06,01,06,04,0.00
2010,06,01,06,05,0.00
2010,06,01,06,06,0.00
2010,06,01,06,07,0.00
2010,06,01,06,08,0.00
2010,06,01,06,09,0.00
2010,06,01,06,10,0.00
2010,06,01,06,11,0.00
2010,06,01,06,12,0.00
2010,06,01,06,13,0.00
2010,06,01,06,14,0.10
2010,06,01,06,15,0.00
2010,06,01,06,16,0.20
2010,06,01,06,17,0.00
2010,06,01,06,18,0.00
2010,06,01,06,19,0.00
2010,06,01,06,20,0.00
2010,06,01,06,21,0.00
2010,06,01,06,22,0.00
2010,06,01,06,23,0.00
2010,06,01,06,24,0.00
2010,06,01,06,25,0.00
2010,06,01,06,26,0.00
2010,06,01,06,27,0.00
2010,06,01,06,28,0.00
2010,06,01,06,29,0.00
2010,06,01,06,30,0.00
2010,06,01,06,31,0.00
2010,06,01,06,32,0.00
2010,06,01,06,33,0.00
2010,06,01,06,34,0.00
2010,06,01,06,35,0.00
2010,06,01,06,36,0.00
2010,06,01,06,37,0.00
2010,06,01,06,38,0.00
2010,06,01,06,39,0.00
2010,06,01,06,40,0.00
2010,06,01,06,41,0.00
2010,06,01,06,42,0.20
2010,06,01,06,43,0.10
2010,06,01,06,44,0.00
2010,06,01,06,45,0.00
2010,06,01,06,46,0.00
2010,06,01,06,47,0.00
2010,06,01,06,48,0.20
2010,06,01,06,49,0.00
2010,06,01,06,50,0.10
2010,06,01,06,51,0.00
2010,06,01,06,52,1.50
2010,06,01,06,53,1.10
2010,06,01,06,54,0.00
2010,06,01,06,55,0.00
2010,06,01,06,56,0.00
2010,06,01,06,57,0.00
2010,06,01,06,58,0.00
2010,06,01,06,59,0.00
2010,06,01,07,00,0.00
2010,06,01,07,01,0.00
2010,06,01,07,02,0.00
2010,06,01,07,03,0.00
2010,06,01,07,04,0.00
2010,06,01,07,05,0.00
2010,06,01,07,06,0.00
2010,06,01,07,07,0.00
2010,06,01,07,08,0.00
2010,06,01,07,09,0.00
2010,06,01,07,10,0.00
2010,06,01,07,11,0.00
2010,06,01,07,12,0.00
2010,06,01,07,13,0.00
2010,06,01,07,14,0.00
2010,06,01,07,15,0.00
2010,06,01,07,16,0.00
2010,06,01,07,17,0.00
2010,06,01,07,18,0.00
2010,06,01,07,19,0.00
2010,06,01,07,20,0.00
2010,06,01,07,21,0.00
2010,06,01,07,22,0.00
2010,06,01,07,23,0.00
2010,06,01,07,24,0.00
2010,06,01,07,25,0.00
2010,06,01,07,26,0.00
2010,06,01,07,27,0.00
2010,06,01,07,28,0.00
2010,06,01,07,29,0.00
2010,06,01,07,30,0.00
2010,06,01,07,31,0.00
2010,06,01,07,32,0.00
2010,06,01,07,33,0.00
2010,06,01,07,34,0.00
2010,06,01,07,35,0.00
2010,06,01,07,36,0.00
2010,06,01,07,37,0.00
2010,06,01,07,38,0.10
2010,06,01,07,39,0.00
2010,06,01,07,40,0.00
2010,06,01,07,41,0.30
2010,06,01,07,42,0.10
2010,06,01,07,43,0.00
2010,06,01,07,44,0.10
2010,06,01,07,45,0.00
2010,06,01,07,46,0.00
2010,06,01,07,47,0.00
2010,06,01,07,48,0.00
2010,06,01,07,49,0.00
2010,06,01,07,50,0.00
2010,06,01,07,51,0.00
2010,06,01,07,52,0.00
2010,06,01,07,53,0.00
2010,06,01,07,54,0.00
2010,06,01,07,55,0.00
2010,06,01,07,56,0.00
2010,06,01,07,57,0.00
2010,06,01,07,58,0.00
2010,06,01,07,59,0.00
2010,06,01,08,00,0.00
2010,06,01,08,01,0.00
2010,06,01,08,02,0.00
2010,06,01,08,03,0.00
2010,06,01,08,04,0.00
2010,06,01,08,05,0.00
2010,06,01,08,06,0.00
2010,06,01,08,07,0.00
2010,06,01,08,08,0.00
2010,06,01,08,09,0.00
2010,06,01,08,10,0.00
2010,06,01,08,11,0.00
2010,06,01,08,12,0.00
2010,06,01,08,13,0.00
2010,06,01,08,14,0.00
2010,06,01,08,15,0.00
2010,06,01,08,16,0.90
2010,06,01,08,17,0.40
2010,06,01,08,18,0.70
2010,06,01,08,19,5.80
2010,06,01,08,20,7.10
2010,06,01,08,21,6.50
2010,06,01,08,22,7.10
2010,06,01,08,23,9.00
2010,06,01,08,24,9.10
2010,06,01,08,25,8.90
2010,06,01,08,26,3.60
2010,06,01,08,27,5.50
2010,06,01,08,28,2.90
2010,06,01,08,29,2.90
2010,06,01,08,30,4.70
2010,06,01,08,31,5.90
2010,06,01,08,32,4.30
2010,06,01,08,33,5.90
2010,06,01,08,34,6.10
2010,06,01,08,35,7.10
2010,06,01,08,36,6.80
2010,06,01,08,37,2.90
2010,06,01,08,38,5.30
2010,06,01,08,39,5.80
2010,06,01,08,40,8.30
2010,06,01,08,41,7.70
2010,06,01,08,42,8.10
2010,06,01,08,43,7.90
2010,06,01,08,44,7.20
2010,06,01,08,45,5.00
2010,06,01,08,46,3.80
2010,06,01,08,47,5.80
2010,06,01,08,48,4.60
2010,06,01,08,49,7.70
2010,06,01,08,50,8.00
2010,06,01,08,51,1.00
2010,06,01,08,52,3.00
2010,06,01,08,53,5.00
2010,06,01,08,54,6.90
2010,06,01,08,55,3.70
2010,06,01,08,56,2.80
2010,06,01,08,57,6.00
2010,06,01,08,58,2.20
2010,06,01,08,59,4.10
2010,06,01,09,00,5.60
2010,06,01,09,01,2.70
2010,06,01,09,02,1.70
2010,06,01,09,03,5.80
2010,06,01,09,04,7.70
2010,06,01,09,05,9.80
2010,06,01,09,06,9.60
2010,06,01,09,07,10.00
2010,06,01,09,08,7.90
2010,06,01,09,09,3.00
2010,06,01,09,10,4.60
2010,06,01,09,11,6.90
2010,06,01,09,12,3.00
2010,06,01,09,13,3.80
2010,06,01,09,14,2.80
2010,06,01,09,15,4.50
2010,06,01,09,16,2.60
2010,06,01,09,17,2.90
2010,06,01,09,18,1.30
2010,06,01,09,19,1.30
2010,06,01,09,20,0.30
2010,06,01,09,21,1.40
2010,06,01,09,22,3.50
2010,06,01,09,23,5.10
2010,06,01,09,24,9.30
2010,06,01,09,25,9.30
2010,06,01,09,26,7.20
2010,06,01,09,27,6.20
2010,06,01,09,28,5.80
2010,06,01,09,29,10.60
2010,06,01,09,30,9.10
2010,06,01,09,31,9.50
2010,06,01,09,32,9.00
2010,06,01,09,33,5.90
2010,06,01,09,34,7.20
2010,06,01,09,35,5.60
2010,06,01,09,36,8.90
2010,06,01,09,37,7.30
2010,06,01,09,38,7.60
2010,06,01,09,39,8.00
2010,06,01,09,40,11.90
2010,06,01,09,41,7.50
2010,06,01,09,42,12.50
2010,06,01,09,43,8.50
2010,06,01,09,44,12.60
2010,06,01,09,45,10.30
2010,06,01,09,46,10.50
2010,06,01,09,47,11.40
2010,06,01,09,48,10.50
2010,06,01,09,49,9.00
2010,06,01,09,50,9.10
2010,06,01,09,51,8.10
2010,06,01,09,52,4.40
2010,06,01,09,53,6.00
2010,06,01,09,54,6.30
2010,06,01,09,55,3.60
2010,06,01,09,56,5.10
2010,06,01,09,57,5.40
2010,06,01,09,58,8.80
2010,06,01,09,59,8.10
2010,06,01,10,00,11.80
2010,06,01,10,01,10.20
2010,06,01,10,02,14.70
2010,06,01,10,03,10.00
2010,06,01,10,04,9.70
2010,06,01,10,05,9.10
2010,06,01,10,06,10.10
2010,06,01,10,07,13.30
2010,06,01,10,08,14.00
2010,06,01,10,09,11.50
2010,06,01,10,10,11.10
2010,06,01,10,11,10.00
2010,06,01,10,12,8.80
2010,06,01,10,13,9.40
2010,06,01,10,14,7.40
2010,06,01,10,15,8.90
2010,06,01,10,16,9.00
2010,06,01,10,17,10.00
2010,06,01,10,18,7.90
2010,06,01,10,19,11.40
2010,06,01,10,20,9.70
2010,06,01,10,21,10.30
2010,06,01,10,22,7.80
2010,06,01,10,23,8.60
2010,06,01,10,24,10.10
2010,06,01,10,25,9.00
2010,06,01,10,26,7.70
2010,06,01,10,27,9.10
2010,06,01,10,28,9.10
2010,06,01,10,29,5.30
2010,06,01,10,30,9.30
2010,06,01,10,31,4.20
2010,06,01,10,32,4.90
2010,06,01,10,33,6.70
2010,06,01,10,34,9.30
2010,06,01,10,35,6.80
2010,06,01,10,36,7.50
2010,06,01,10,37,7.40
2010,06,01,10,38,4.40
2010,06,01,10,39,7.30
2010,06,01,10,40,7.70
2010,06,01,10,41,5.30
2010,06,01,10,42,5.90
2010,06,01,10,43,5.70
2010,06,01,10,44,7.90
2010,06,01,10,45,8.10
2010,06,01,10,46,9.60
2010,06,01,10,47,8.00
2010,06,01,10,48,9.40
2010,06,01,10,49,4.50
2010,06,01,10,50,9.60
2010,06,01,10,51,10.70
2010,06,01,10,52,8.40
2010,06,01,10,53,10.10
2010,06,01,10,54,7.10
2010,06,01,10,55,3.40
2010,06,01,10,56,2.50
2010,06,01,10,57,2.50
2010,06,01,10,58,6.30
2010,06,01,10,59,5.00
2010,06,01,11,00,7.00
2010,06,01,11,01,5.50
2010,06,01,11,02,9.90
2010,06,01,11,03,7.00
2010,06,01,11,04,7.70
2010,06,01,11,05,12.30
2010,06,01,11,06,11.00
2010,06,01,11,07,9.30
2010,06,01,11,08,8.70
2010,06,01,11,09,8.90
2010,06,01,11,10,12.00
2010,06,01,11,11,9.00
2010,06,01,11,12,9.90
2010,06,01,11,13,11.10
2010,06,01,11,14,8.50
2010,06,01,11,15,13.00
2010,06,01,11,16,7.30
2010,06,01,11,17,9.30
2010,06,01,11,18,10.70
2010,06,01,11,19,9.30
2010,06,01,11,20,8.30
2010,06,01,11,21,7.80
2010,06,01,11,22,10.10
2010,06,01,11,23,14.10
2010,06,01,11,24,13.00
2010,06,01,11,25,12.90
2010,06,01,11,26,14.20
2010,06,01,11,27,11.20
2010,06,01,11,28,10.40
2010,06,01,11,29,12.40
2010,06,01,11,30,7.70
2010,06,01,11,31,13.90
2010,06,01,11,32,8.10
2010,06,01,11,33,9.60
2010,06,01,11,34,7.40
2010,06,01,11,35,11.60
2010,06,01,11,36,13.90
2010,06,01,11,37,12.70
2010,06,01,11,38,8.90
2010,06,01,11,39,8.00
2010,06,01,11,40,9.80
2010,06,01,11,41,11.40
2010,06,01,11,42,8.20
2010,06,01,11,43,14.70
2010,06,01,11,44,11.50
2010,06,01,11,45,9.30
2010,06,01,11,46,8.40
2010,06,01,11,47,9.20
2010,06,01,11,48,10.30
2010,06,01,11,49,8.90
2010,06,01,11,50,5.60
2010,06,01,11,51,3.90
2010,06,01,11,52,9.70
2010,06,01,11,53,7.60
2010,06,01,11,54,11.00
2010,06,01,11,55,10.70
2010,06,01,11,56,14.90
2010,06,01,11,57,13.70
2010,06,01,11,58,14.10
2010,06,01,11,59,11.30
2010,06,01,12,00,6.90
2010,06,01,12,01,8.60
2010,06,01,12,02,10.40
2010,06,01,12,03,11.90
2010,06,01,12,04,13.00
2010,06,01,12,05,11.30
2010,06,01,12,06,10.30
2010,06,01,12,07,7.20
2010,06,01,12,08,8.80
2010,06,01,12,09,11.70
2010,06,01,12,10,14.90
2010,06,01,12,11,9.20
2010,06,01,12,12,10.50
2010,06,01,12,13,5.70
2010,06,01,12,14,1.70
2010,06,01,12,15,4.40
2010,06,01,12,16,4.60
2010,06,01,12,17,8.90
2010,06,01,12,18,7.90
2010,06,01,12,19,10.30
2010,06,01,12,20,10.70
2010,06,01,12,21,7.80
2010,06,01,12,22,6.70
2010,06,01,12,23,8.80
2010,06,01,12,24,9.80
2010,06,01,12,25,7.70
2010,06,01,12,26,11.20
2010,06,01,12,27,12.10
2010,06,01,12,28,10.90
2010,06,01,12,29,8.40
2010,06,01,12,30,7.90
2010,06,01,12,31,10.10
2010,06,01,12,32,7.30
2010,06,01,12,33,4.80
2010,06,01,12,34,7.70
2010,06,01,12,35,10.70
2010,06,01,12,36,8.90
2010,06,01,12,37,8.40
2010,06,01,12,38,10.60
2010,06,01,12,39,12.80
2010,06,01,12,40,9.00
2010,06,01,12,41,7.20
2010,06,01,12,42,7.00
2010,06,01,12,43,2.00
2010,06,01,12,44,3.00
2010,06,01,12,45,6.90
2010,06,01,12,46,9.50
2010,06,01,12,47,8.10
2010,06,01,12,48,6.80
2010,06,01,12,49,7.40
2010,06,01,12,50,4.70
2010,06,01,12,51,7.50
2010,06,01,12,52,13.30
2010,06,01,12,53,9.70
2010,06,01,12,54,9.20
2010,06,01,12,55,8.10
2010,06,01,12,56,8.80
2010,06,01,12,57,6.80
2010,06,01,12,58,5.00
2010,06,01,12,59,7.50
2010,06,01,13,00,5.10
2010,06,01,13,01,4.90
2010,06,01,13,02,3.80
2010,06,01,13,03,7.80
2010,06,01,13,04,7.50
2010,06,01,13,05,9.80
2010,06,01,13,06,13.50
2010,06,01,13,07,12.80
2010,06,01,13,08,11.40
2010,06,01,13,09,10.50
2010,06,01,13,10,9.20
2010,06,01,13,11,11.50
2010,06,01,13,12,6.20
2010,06,01,13,13,3.80
2010,06,01,13,14,6.10
2010,06,01,13,15,5.40
2010,06,01,13,16,9.70
2010,06,01,13,17,4.00
2010,06,01,13,18,1.40
2010,06,01,13,19,10.10
2010,06,01,13,20,8.40
2010,06,01,13,21,5.20
2010,06,01,13,22,6.10
2010,06,01,13,23,5.20
2010,06,01,13,24,8.80
2010,06,01,13,25,10.20
2010,06,01,13,26,14.60
2010,06,01,13,27,9.00
2010,06,01,13,28,3.40
2010,06,01,13,29,6.20
2010,06,01,13,30,9.30
2010,06,01,13,31,8.90
2010,06,01,13,32,6.90
2010,06,01,13,33,7.20
2010,06,01,13,34,9.80
2010,06,01,13,35,7.60
2010,06,01,13,36,8.70
2010,06,01,13,37,7.90
2010,06,01,13,38,3.30
2010,06,01,13,39,3.40
2010,06,01,13,40,3.10
2010,06,01,13,41,7.30
2010,06,01,13,42,9.70
2010,06,01,13,43,7.20
2010,06,01,13,44,5.20
2010,06,01,13,45,7.40
2010,06,01,13,46,5.70
2010,06,01,13,47,7.30
2010,06,01,13,48,8.00
2010,06,01,13,49,4.80
2010,06,01,13,50,7.00
2010,06,01,13,51,9.90
2010,06,01,13,52,13.00
2010,06,01,13,53,8.90
2010,06,01,13,54,9.20
2010,06,01,13,55,7.30
2010,06,01,13,56,5.30
2010,06,01,13,57,9.00
2010,06,01,13,58,14.20
2010,06,01,13,59,8.80
2010,06,01,14,00,12.60
2010,06,01,14,01,12.10
2010,06,01,14,02,12.20
2010,06,01,14,03,13.70
2010,06,01,14,04,13.60
2010,06,01,14,05,14.10
2010,06,01,14,06,13.80
2010,06,01,14,07,15.70
2010,06,01,14,08,13.30
2010,06,01,14,09,17.30
2010,06,01,14,10,10.50
2010,06,01,14,11,15.80
2010,06,01,14,12,15.20
2010,06,01,14,13,8.10
2010,06,01,14,14,14.60
2010,06,01,14,15,13.90
2010,06,01,14,16,13.90
2010,06,01,14,17,10.20
2010,06,01,14,18,5.50
2010,06,01,14,19,12.30
2010,06,01,14,20,16.80
2010,06,01,14,21,14.70
2010,06,01,14,22,14.90
2010,06,01,14,23,11.90
2010,06,01,14,24,9.20
2010,06,01,14,25,12.10
2010,06,01,14,26,15.40
2010,06,01,14,27,13.10
2010,06,01,14,28,17.60
2010,06,01,14,29,11.40
2010,06,01,14,30,9.70
2010,06,01,14,31,6.50
2010,06,01,14,32,15.40
2010,06,01,14,33,9.70
2010,06,01,14,34,12.00
2010,06,01,14,35,14.60
2010,06,01,14,36,8.60
2010,06,01,14,37,9.50
2010,06,01,14,38,3.60
2010,06,01,14,39,11.90
2010,06,01,14,40,13.40
2010,06,01,14,41,9.70
2010,06,01,14,42,12.60
2010,06,01,14,43,8.50
2010,06,01,14,44,9.20
2010,06,01,14,45,10.80
2010,06,01,14,46,10.60
2010,06,01,14,47,9.30
2010,06,01,14,48,8.00
2010,06,01,14,49,11.40
2010,06,01,14,50,14.90
2010,06,01,14,51,15.60
2010,06,01,14,52,13.60
2010,06,01,14,53,7.00
2010,06,01,14,54,7.50
2010,06,01,14,55,12.20
2010,06,01,14,56,7.00
2010,06,01,14,57,7.20
2010,06,01,14,58,7.10
2010,06,01,14,59,10.50
2010,06,01,15,00,8.80
2010,06,01,15,01,9.10
2010,06,01,15,02,12.10
2010,06,01,15,03,7.70
2010,06,01,15,04,4.40
2010,06,01,15,05,10.30
2010,06,01,15,06,10.30
2010,06,01,15,07,10.80
2010,06,01,15,08,8.00
2010,06,01,15,09,7.80
2010,06,01,15,10,12.40
2010,06,01,15,11,10.60
2010,06,01,15,12,7.90
2010,06,01,15,13,7.80
2010,06,01,15,14,13.00
2010,06,01,15,15,12.00
2010,06,01,15,16,9.60
2010,06,01,15,17,10.80
2010,06,01,15,18,5.50
2010,06,01,15,19,7.20
2010,06,01,15,20,5.10
2010,06,01,15,21,3.30
2010,06,01,15,22,7.10
2010,06,01,15,23,12.40
2010,06,01,15,24,10.80
2010,06,01,15,25,8.00
2010,06,01,15,26,12.70
2010,06,01,15,27,10.80
2010,06,01,15,28,8.90
2010,06,01,15,29,11.40
2010,06,01,15,30,10.70
2010,06,01,15,31,14.00
2010,06,01,15,32,10.50
2010,06,01,15,33,6.50
2010,06,01,15,34,7.60
2010,06,01,15,35,12.40
2010,06,01,15,36,10.60
2010,06,01,15,37,9.70
2010,06,01,15,38,9.20
2010,06,01,15,39,6.40
2010,06,01,15,40,8.40
2010,06,01,15,41,6.60
2010,06,01,15,42,6.30
2010,06,01,15,43,5.80
2010,06,01,15,44,5.10
2010,06,01,15,45,3.20
2010,06,01,15,46,4.60
2010,06,01,15,47,5.20
2010,06,01,15,48,11.90
2010,06,01,15,49,6.40
2010,06,01,15,50,6.30
2010,06,01,15,51,6.10
2010,06,01,15,52,4.20
2010,06,01,15,53,1.10
2010,06,01,15,54,5.00
2010,06,01,15,55,8.50
2010,06,01,15,56,10.60
2010,06,01,15,57,12.50
2010,06,01,15,58,11.10
2010,06,01,15,59,10.50
2010,06,01,16,00,9.10
2010,06,01,16,01,8.40
2010,06,01,16,02,5.30
2010,06,01,16,03,8.50
2010,06,01,16,04,12.50
2010,06,01,16,05,9.40
2010,06,01,16,06,9.10
2010,06,01,16,07,5.20
2010,06,01,16,08,3.80
2010,06,01,16,09,5.80
2010,06,01,16,10,10.40
2010,06,01,16,11,12.20
2010,06,01,16,12,8.30
2010,06,01,16,13,8.60
2010,06,01,16,14,4.20
2010,06,01,16,15,1.70
2010,06,01,16,16,7.10
2010,06,01,16,17,6.80
2010,06,01,16,18,14.00
2010,06,01,16,19,15.10
2010,06,01,16,20,13.30
2010,06,01,16,21,11.90
2010,06,01,16,22,6.60
2010,06,01,16,23,5.70
2010,06,01,16,24,7.40
2010,06,01,16,25,8.10
2010,06,01,16,26,10.30
2010,06,01,16,27,8.50
2010,06,01,16,28,7.20
2010,06,01,16,29,3.10
2010,06,01,16,30,5.20
2010,06,01,16,31,7.20
2010,06,01,16,32,2.60
2010,06,01,16,33,3.90
2010,06,01,16,34,2.10
2010,06,01,16,35,2.30
2010,06,01,16,36,1.70
2010,06,01,16,37,1.70
2010,06,01,16,38,5.10
2010,06,01,16,39,7.90
2010,06,01,16,40,5.10
2010,06,01,16,41,1.60
2010,06,01,16,42,4.80
2010,06,01,16,43,5.20
2010,06,01,16,44,3.20
2010,06,01,16,45,4.10
2010,06,01,16,46,1.20
2010,06,01,16,47,3.10
2010,06,01,16,48,0.90
2010,06,01,16,49,1.20
2010,06,01,16,50,3.00
2010,06,01,16,51,0.80
2010,06,01,16,52,5.50
2010,06,01,16,53,4.20
2010,06,01,16,54,4.00
2010,06,01,16,55,4.20
2010,06,01,16,56,4.40
2010,06,01,16,57,1.00
2010,06,01,16,58,3.30
2010,06,01,16,59,1.80
2010,06,01,17,00,2.30
2010,06,01,17,01,2.30
2010,06,01,17,02,6.00
2010,06,01,17,03,6.90
2010,06,01,17,04,6.60
2010,06,01,17,05,6.90
2010,06,01,17,06,5.60
2010,06,01,17,07,4.30
2010,06,01,17,08,2.90
2010,06,01,17,09,2.30
2010,06,01,17,10,8.60
2010,06,01,17,11,9.80
2010,06,01,17,12,5.70
2010,06,01,17,13,3.60
2010,06,01,17,14,1.80
2010,06,01,17,15,0.10
2010,06,01,17,16,0.00
2010,06,01,17,17,0.00
2010,06,01,17,18,0.30
2010,06,01,17,19,0.80
2010,06,01,17,20,1.30
2010,06,01,17,21,2.70
2010,06,01,17,22,0.80
2010,06,01,17,23,0.30
2010,06,01,17,24,0.50
2010,06,01,17,25,0.80
2010,06,01,17,26,3.20
2010,06,01,17,27,3.00
2010,06,01,17,28,3.70
2010,06,01,17,29,3.50
2010,06,01,17,30,3.00
2010,06,01,17,31,5.00
2010,06,01,17,32,6.00
2010,06,01,17,33,8.30
2010,06,01,17,34,3.90
2010,06,01,17,35,1.60
2010,06,01,17,36,0.90
2010,06,01,17,37,1.40
2010,06,01,17,38,1.00
2010,06,01,17,39,0.10
2010,06,01,17,40,0.30
2010,06,01,17,41,2.80
2010,06,01,17,42,6.40
2010,06,01,17,43,5.80
2010,06,01,17,44,2.50
2010,06,01,17,45,1.70
2010,06,01,17,46,0.90
2010,06,01,17,47,3.10
2010,06,01,17,48,0.00
2010,06,01,17,49,0.30
2010,06,01,17,50,0.20
2010,06,01,17,51,1.40
2010,06,01,17,52,0.30
2010,06,01,17,53,0.20
2010,06,01,17,54,0.00
2010,06,01,17,55,0.20
2010,06,01,17,56,1.80
2010,06,01,17,57,0.30
2010,06,01,17,58,1.40
2010,06,01,17,59,2.70